Wind_Speed
6 7 6 6 6 6 5 6 6 8 9 8 8 8 7 7 6 7 7 8 9 10 11 14 16 19 21 23 27 29 32 33 35 37 41 41 42 45 47 50 52 56 60 60
9 10 10 10 10 10 9 8 7 8 9 8 8 9 9 8 8 9 10 12 14 16 18 19 21 23 25 28 30 33 36 37 39 42 44 44 43 45 49 51 53 54 60 60
11 12 12 13 15 15 14 13 12 13 13 12 13 13 13 13 14 15 16 18 19 21 22 23 25 28 29 31 33 36 39 40 41 44 46 47 46 47 49 53 55 58 57 64
16 15 15 15 16 17 19 18 18 18 18 18 17 18 18 19 19 20 21 23 24 25 26 27 29 31 33 34 36 38 41 42 44 45 47 47 47 48 51 54 56 59 57 64
20 20 20 20 19 20 19 21 22 22 22 23 23 24 24 24 25 25 26 27 28 30 31 32 33 35 36 37 39 41 42 45 46 45 47 49 48 48 53 55 58 60 63 61
22 22 22 23 23 24 24 25 25 25 25 26 26 27 28 29 30 30 31 31 33 34 34 35 37 39 39 41 42 43 44 47 48 49 52 52 48 50 55 56 58 60 64 65
24 24 24 24 25 26 26 26 26 27 29 30 30 30 31 32 33 34 35 36 37 37 37 38 40 41 42 44 44 45 47 49 50 54 56 55 51 54 56 55 58 61 65 66
29 29 28 28 28 28 29 30 30 29 29 30 31 32 34 34 35 36 37 39 41 40 40 41 43 44 46 47 46 47 48 49 53 57 57 55 50 53 53 55 54 61 65 68
36 35 35 35 35 34 33 33 32 33 33 33 34 34 35 36 37 38 39 41 42 43 43 44 46 49 49 49 49 47 48 49 53 57 59 57 52 54 57 59 59 63 66 68
42 42 41 40 38 36 36 35 35 35 36 36 36 36 37 39 40 41 42 44 44 46 47 48 49 52 52 51 49 47 50 52 54 58 60 56 52 56 57 60 65 65 67 68
46 45 45 44 43 43 42 41 40 40 41 41 41 41 41 42 43 44 44 46 47 51 52 53 54 54 53 51 50 48 50 51 56 58 61 56 55 56 60 64 64 65 66 71
49 48 48 48 48 48 48 47 48 48 48 47 46 46 46 46 46 48 49 49 50 51 52 54 54 53 52 52 54 51 51 49 55 55 58 51 56 58 61 62 63 64 68 71
46 47 47 46 48 48 47 47 47 49 50 50 50 51 51 51 51 51 53 51 49 51 53 55 56 55 55 56 57 58 52 51 56 60 50 52 58 59 62 62 62 65 70 73
43 43 44 44 45 47 47 49 50 51 53 51 49 50 51 51 51 51 51 52 52 51 51 52 54 56 60 60 59 62 53 54 60 57 51 53 54 59 61 59 62 68 69 72
40 39 39 40 40 41 43 43 43 44 45 47 46 45 46 50 52 51 51 51 52 50 50 53 57 58 58 59 61 54 50 57 58 55 52 52 54 59 57 59 64 64 66 68
42 42 42 44 45 46 47 47 46 46 47 50 49 46 44 45 46 48 50 48 46 50 50 52 56 59 58 55 55 41 38 54 50 48 49 53 58 57 57 59 59 62 64 68
50 52 52 53 55 54 55 55 53 51 50 53 56 56 51 47 43 45 49 52 51 47 47 49 45 43 48 50 40 36 46 46 47 47 51 53 56 55 54 56 59 60 64 64
52 55 56 57 58 57 57 56 57 59 60 60 63 63 61 55 48 47 47 49 52 52 48 50 50 47 44 35 33 42 46 45 43 45 45 47 50 51 53 55 56 58 61 60
59 60 62 64 63 64 61 60 62 62 63 66 66 64 64 60 55 53 50 49 50 53 53 49 48 45 43 34 40 44 42 40 38 44 48 49 50 50 50 52 54 56 57 57
65 65 67 69 67 65 67 70 69 68 69 71 71 67 65 59 60 59 55 52 53 54 52 51 51 48 36 38 44 42 43 43 45 48 48 48 47 45 47 50 51 54 55 55
68 67 67 70 72 72 74 76 78 80 80 79 74 67 63 59 58 58 56 53 54 55 53 53 51 46 37 47 45 44 45 43 43 44 44 44 44 45 47 49 50 52 53 51
70 70 72 74 76 77 78 80 82 83 81 78 70 63 59 56 51 51 52 52 52 53 52 50 49 37 41 42 39 42 41 41 41 40 42 43 43 43 45 48 49 50 50 48
74 75 75 75 74 76 82 83 78 72 64 61 63 58 54 51 47 51 52 52 52 50 49 46 38 32 35 36 41 40 39 40 39 41 43 43 42 43 46 47 49 48 47 45
73 71 71 70 74 75 58 50 44 44 46 50 52 48 47 49 48 48 47 47 46 47 45 37 31 31 31 35 35 36 38 40 39 41 42 42 42 44 45 46 46 45 43 42
64 63 65 68 56 47 43 42 42 39 36 39 49 52 54 56 55 53 46 46 46 43 35 32 35 34 35 38 37 37 38 37 39 41 42 43 44 45 45 44 43 43 40 39
62 64 63 55 47 39 41 42 38 35 34 34 39 46 49 49 46 46 45 48 42 34 34 38 33 33 41 40 38 37 36 38 39 41 42 44 44 44 43 41 42 40 37 36
63 60 54 50 45 44 43 41 39 36 35 35 34 38 48 43 43 42 48 49 36 35 35 41 30 37 39 39 38 37 37 38 39 41 43 43 43 41 40 40 39 36 36 33
Wind_Direction
269 259 243 220 208 207 209 202 202 199 193 200 201 199 204 212 224 238 249 265 278 285 288 288 287 293 299 303 305 306 305 306 306 308 308 309 312 311 311 311 311 311 309 312
260 262 248 234 230 231 235 234 229 223 212 213 220 225 227 238 247 258 268 274 278 280 285 289 290 294 299 301 301 301 301 303 306 306 306 307 310 310 311 309 309 311 308 312
263 258 253 247 239 238 241 243 246 249 248 245 245 249 251 256 262 268 273 277 282 286 288 291 294 297 297 298 299 300 302 304 306 306 305 307 311 312 312 311 312 310 315 309
267 267 265 258 253 248 246 248 250 254 256 257 255 256 260 264 269 274 277 280 283 285 288 292 295 297 297 298 298 300 301 304 305 305 305 307 309 310 309 309 309 309 311 311
272 270 271 270 267 261 257 258 257 257 261 262 263 264 264 266 269 272 275 279 283 285 288 291 293 294 296 297 298 299 301 303 304 303 304 304 305 309 308 309 309 309 310 313
271 273 274 275 276 274 269 265 263 263 263 265 267 268 269 270 272 274 276 279 281 284 287 290 292 294 296 298 299 300 302 304 306 307 305 304 308 309 308 311 310 310 312 315
269 271 272 274 276 276 275 273 272 272 272 270 270 270 271 272 274 276 277 278 278 280 283 286 289 293 295 295 296 298 303 306 308 308 308 308 314 311 310 312 312 312 313 314
265 267 270 272 274 275 277 275 274 272 272 273 273 275 276 278 277 277 278 278 279 280 281 285 288 291 294 293 294 297 301 306 308 308 307 309 312 310 311 311 313 310 313 314
267 269 271 272 273 274 273 272 272 273 273 272 275 275 275 276 277 279 279 279 281 282 284 286 289 292 293 292 293 295 299 305 308 306 306 308 313 308 310 311 315 315 315 315
269 270 271 271 272 271 270 269 270 271 271 272 273 274 276 278 279 280 280 280 281 283 285 286 289 290 289 287 288 292 295 300 305 305 304 309 309 308 311 313 316 317 315 316
269 269 270 270 270 271 272 272 271 271 271 274 274 275 276 276 278 279 280 281 283 285 287 289 289 288 286 283 285 290 294 302 304 305 303 312 311 312 311 313 314 314 315 317
273 272 272 272 271 270 270 271 272 272 273 274 274 276 278 278 279 281 283 286 286 285 288 289 288 287 285 283 284 287 292 301 303 300 301 310 309 312 310 312 313 313 317 317
272 272 273 274 275 275 275 274 274 273 274 275 276 276 277 278 279 281 282 283 284 285 288 288 286 285 286 285 286 286 291 300 299 295 303 303 307 308 310 313 312 316 316 317
275 276 276 276 275 277 277 276 276 276 276 275 276 279 280 280 280 281 283 283 283 283 285 283 282 281 282 283 283 288 298 301 294 298 304 304 307 307 310 309 308 312 315 321
277 278 280 281 282 282 283 283 284 284 284 285 284 283 283 284 285 285 285 285 285 286 285 283 278 280 279 280 286 297 300 294 290 299 301 305 305 307 307 308 309 313 316 322
275 276 280 283 285 286 286 286 288 289 288 288 288 287 288 288 288 290 289 288 285 282 286 288 288 286 275 277 292 307 287 280 295 302 303 305 305 306 308 310 313 316 318 325
276 279 282 285 285 286 287 289 289 288 288 288 289 289 291 290 287 284 285 287 287 287 286 286 288 288 287 294 304 286 283 293 298 301 305 305 304 309 311 312 312 315 321 328
279 281 283 284 285 288 290 287 287 286 287 285 285 288 289 293 292 285 282 282 283 284 279 276 282 287 292 301 299 291 294 297 302 305 306 307 309 309 308 308 311 317 324 329
283 283 284 284 285 286 288 285 283 282 283 284 286 287 289 293 292 287 280 277 277 275 278 284 285 286 293 305 293 291 293 299 302 304 304 306 308 308 308 310 312 318 326 328
281 280 281 282 283 283 281 280 281 281 280 281 285 287 290 290 288 284 280 276 274 275 276 277 279 284 295 297 291 293 294 296 297 301 303 305 308 309 309 310 315 320 326 327
280 281 280 279 279 279 279 279 281 282 281 282 284 285 287 286 283 280 278 277 277 278 277 277 280 284 292 283 287 289 292 296 298 300 305 307 307 306 308 313 316 322 325 325
279 279 278 278 278 279 278 279 280 281 283 284 286 285 280 277 274 272 271 273 275 279 279 281 283 295 285 284 286 287 291 297 301 303 304 305 305 307 308 313 317 323 324 324
279 278 278 280 281 280 282 284 288 289 289 286 281 278 268 263 265 266 270 270 273 276 278 284 292 283 277 284 285 288 292 296 299 303 305 306 308 309 311 316 318 322 324 322
280 281 279 280 282 284 290 288 288 286 281 279 277 275 268 264 270 267 267 274 273 276 279 286 293 278 286 288 288 292 293 296 301 303 304 307 307 311 313 314 319 320 323 321
272 271 275 281 284 291 293 290 291 290 293 285 271 269 265 265 269 265 266 271 277 282 291 293 284 275 287 289 289 290 290 296 301 303 306 308 309 313 314 315 317 319 320 319
268 270 276 282 283 287 282 282 283 280 281 281 273 271 272 271 267 262 265 272 270 288 293 296 290 280 285 286 289 289 292 297 300 302 305 307 309 311 313 314 316 316 317 318
268 275 280 282 281 279 274 274 271 275 278 281 265 261 281 277 275 264 267 269 270 287 279 291 281 275 281 286 288 289 294 297 300 303 305 306 307 309 311 313 314 313 314 317
Height
5851 5851 5852 5852 5853 5853 5854 5854 5854 5854 5854 5855 5855 5855 5855 5855 5855 5855 5855 5854 5854 5853 5852 5851 5849 5847 5845 5843 5840 5838 5834 5832 5828 5824 5818 5814 5808 5801 5796 5789 5784 5776 5766 5770
5850 5850 5850 5850 5851 5852 5852 5853 5853 5853 5853 5852 5852 5852 5852 5852 5852 5852 5851 5851 5850 5849 5849 5848 5845 5842 5840 5837 5834 5831 5827 5823 5819 5814 5810 5805 5798 5791 5785 5777 5772 5767 5753 5751
5848 5847 5848 5848 5848 5848 5850 5850 5851 5851 5850 5850 5850 5850 5849 5849 5848 5847 5847 5846 5845 5844 5843 5841 5838 5836 5834 5831 5827 5822 5817 5814 5810 5804 5798 5793 5786 5779 5771 5763 5757 5750 5743 5733
5844 5844 5844 5844 5844 5845 5845 5845 5846 5846 5846 5846 5845 5845 5845 5844 5843 5842 5841 5840 5839 5837 5836 5834 5831 5829 5826 5823 5818 5814 5809 5805 5800 5793 5787 5781 5776 5769 5761 5753 5745 5736 5736 5718
5841 5840 5840 5840 5840 5840 5841 5840 5840 5840 5840 5840 5840 5839 5838 5838 5837 5836 5835 5834 5832 5830 5828 5826 5823 5820 5817 5813 5809 5804 5800 5794 5789 5786 5777 5771 5766 5759 5749 5742 5732 5723 5714 5712
5835 5835 5835 5835 5835 5835 5835 5834 5834 5834 5834 5833 5832 5832 5831 5831 5830 5829 5827 5825 5823 5822 5820 5817 5814 5810 5806 5802 5797 5791 5788 5782 5776 5772 5765 5759 5756 5748 5738 5730 5719 5709 5699 5692
5828 5829 5829 5829 5828 5828 5828 5827 5827 5827 5826 5826 5825 5824 5823 5822 5821 5820 5819 5816 5814 5813 5810 5807 5804 5800 5795 5790 5785 5780 5775 5769 5763 5758 5750 5746 5741 5732 5724 5717 5706 5695 5686 5676
5819 5820 5820 5821 5821 5820 5819 5819 5818 5817 5817 5816 5816 5815 5814 5813 5812 5811 5809 5806 5804 5802 5799 5796 5792 5789 5784 5779 5774 5769 5764 5758 5751 5743 5737 5736 5731 5718 5711 5705 5704 5686 5676 5666
5810 5811 5811 5811 5811 5810 5810 5809 5808 5808 5808 5807 5806 5805 5803 5802 5801 5801 5799 5796 5793 5790 5788 5784 5780 5775 5771 5766 5761 5757 5752 5747 5742 5730 5724 5721 5717 5704 5698 5689 5685 5675 5663 5653
5799 5800 5800 5800 5800 5799 5798 5798 5798 5797 5796 5796 5795 5794 5793 5792 5790 5788 5787 5783 5782 5779 5775 5772 5768 5764 5759 5754 5749 5746 5740 5736 5731 5717 5710 5713 5704 5693 5684 5676 5670 5659 5647 5638
5787 5788 5788 5788 5789 5787 5787 5787 5786 5786 5785 5784 5783 5782 5781 5779 5777 5775 5774 5772 5771 5765 5762 5759 5754 5749 5745 5742 5738 5734 5729 5725 5717 5706 5695 5695 5688 5680 5672 5663 5653 5644 5636 5624
5773 5774 5775 5774 5774 5774 5774 5774 5773 5772 5772 5772 5771 5769 5768 5767 5765 5762 5760 5758 5755 5751 5748 5744 5739 5736 5732 5729 5726 5722 5718 5715 5705 5699 5691 5684 5674 5668 5658 5651 5642 5632 5622 5610
5760 5760 5761 5761 5760 5760 5761 5760 5760 5759 5758 5758 5757 5756 5755 5753 5750 5748 5746 5743 5740 5737 5733 5729 5725 5722 5720 5715 5713 5708 5705 5700 5691 5682 5688 5675 5665 5655 5645 5637 5628 5619 5608 5596
5746 5746 5746 5747 5747 5746 5746 5746 5746 5745 5743 5744 5745 5742 5739 5738 5735 5733 5730 5727 5724 5721 5718 5714 5711 5708 5703 5701 5697 5697 5696 5686 5672 5672 5671 5662 5654 5644 5636 5627 5618 5609 5597 5583
5733 5733 5733 5733 5733 5733 5732 5732 5731 5730 5730 5728 5729 5730 5727 5722 5719 5718 5716 5713 5709 5706 5702 5700 5697 5695 5688 5685 5684 5689 5685 5670 5661 5660 5655 5648 5642 5635 5627 5618 5609 5598 5588 5578
5721 5720 5720 5720 5719 5720 5719 5719 5719 5718 5716 5713 5714 5716 5714 5710 5706 5702 5699 5698 5695 5690 5688 5687 5685 5680 5676 5672 5674 5680 5665 5652 5651 5649 5641 5636 5628 5622 5615 5606 5597 5587 5577 5564
5706 5705 5705 5704 5703 5704 5704 5704 5704 5703 5702 5699 5696 5696 5701 5697 5696 5692 5686 5683 5680 5677 5675 5672 5670 5667 5664 5663 5665 5657 5647 5645 5640 5635 5630 5624 5616 5609 5601 5593 5586 5577 5566 5553
5690 5689 5688 5687 5687 5689 5691 5689 5686 5684 5683 5683 5681 5681 5682 5680 5681 5677 5675 5671 5664 5663 5661 5663 5661 5655 5654 5655 5648 5640 5636 5633 5629 5623 5617 5611 5604 5597 5590 5584 5576 5567 5556 5544
5673 5671 5669 5669 5670 5671 5675 5670 5669 5669 5669 5663 5665 5668 5664 5665 5663 5660 5657 5654 5651 5648 5648 5648 5644 5645 5644 5641 5632 5628 5625 5621 5618 5612 5606 5600 5594 5587 5580 5573 5565 5557 5547 5536
5655 5654 5651 5650 5653 5654 5652 5648 5649 5651 5650 5647 5649 5653 5650 5649 5645 5640 5638 5635 5634 5631 5635 5630 5629 5634 5636 5624 5618 5617 5613 5609 5605 5601 5594 5589 5583 5576 5570 5563 5555 5547 5538 5528
5635 5633 5633 5630 5629 5631 5630 5627 5629 5627 5628 5627 5635 5639 5635 5631 5626 5620 5617 5615 5615 5614 5617 5615 5617 5623 5620 5606 5606 5605 5601 5597 5593 5588 5583 5577 5572 5566 5560 5552 5545 5538 5529 5520
5612 5614 5611 5610 5607 5607 5607 5609 5606 5603 5603 5606 5613 5616 5614 5609 5606 5603 5600 5598 5598 5599 5600 5600 5605 5615 5595 5595 5593 5590 5589 5586 5581 5576 5572 5567 5562 5556 5549 5543 5535 5528 5520 5511
5588 5589 5589 5587 5584 5585 5582 5581 5583 5581 5580 5581 5583 5586 5586 5585 5587 5584 5584 5584 5584 5586 5586 5590 5598 5588 5583 5583 5581 5579 5577 5573 5569 5564 5560 5554 5549 5544 5539 5532 5526 5519 5512 5504
5562 5560 5562 5566 5568 5567 5573 5568 5565 5564 5564 5563 5561 5562 5565 5567 5571 5569 5569 5569 5571 5572 5576 5582 5579 5573 5572 5570 5569 5568 5565 5561 5557 5553 5548 5543 5538 5534 5528 5523 5517 5510 5503 5496
5537 5538 5541 5551 5557 5557 5555 5553 5551 5550 5550 5546 5547 5548 5550 5550 5551 5554 5555 5557 5560 5563 5568 5564 5560 5562 5558 5558 5558 5556 5553 5549 5545 5541 5538 5533 5528 5523 5518 5513 5507 5501 5495 5489
5515 5518 5530 5537 5543 5548 5544 5542 5540 5538 5537 5534 5533 5533 5531 5531 5535 5539 5543 5546 5551 5559 5554 5547 5550 5549 5545 5545 5545 5543 5541 5538 5534 5530 5527 5522 5518 5513 5508 5503 5497 5492 5487 5482
5495 5511 5518 5523 5529 5531 5529 5528 5526 5525 5526 5525 5522 5521 5522 5522 5521 5525 5528 5535 5544 5543 5540 5535 5537 5536 5535 5534 5533 5531 5529 5526 5522 5519 5515 5511 5507 5502 5497 5493 5488 5483 5479 5475